Location: Prague
(50.0830°N, 14.4670°E)
Time: 01:54:57
(UTC+01:00)

AO-7 - Pass Details

Date: 18 December 2021
Orbit: 1440 x 1459 km, 101.9° (Epoch: 28 January)

Event Time Altitude Azimuth Distance (km) Brightness Sun altitude
Rises 16:52:09 0° 208° (SSW) 4,520 ? -7.8°
Reaches altitude 10° 16:55:47 10° 223° (SW) 3,547 ? -8.3°
Maximum altitude 17:01:50 22° 271° (W) 2,733 ? -9.2°
Drops below altitude 10° 17:07:57 10° 319° (NW) 3,566 ? -10.1°
Sets 17:11:39 0° 334° (NNW) 4,551 ? -10.6°
